PBO Station Position Time Series. Reference Frame : NAM14
Format Version,1.1.0
4-character ID,RDAZ
Station name,Azua_AzuaDOM2017
Begin Date, 2018-07-16
End Date, 2019-10-07
Release Date, 2019-10-08
Reference position, 18.4454929625 North Latitude, -70.7160556897 East Longitude, 33.40479 meters elevation,
Date, North (mm), East (mm), Vertical (mm), North Std. Deviation (mm), East Std. Deviation (mm),              Vertical Std. Deviation (mm), Quality,
2018-07-16,5.35, -3.36, 9.84, 219.93, 198.22, 628.28, repro,
2018-07-17,2.75, -3.67, 11.41, 258.61, 188.76, 595.95, repro,
2018-07-18,2.12, -5.71, 12.86, 254.86, 176.83, 592.11, repro,
2018-07-19,3.44, -5.36, 11.99, 251.88, 172.37, 585.18, repro,
2018-07-20,2.88, -1.93, -0.86, 251.91, 156.60, 507.28, repro,
2018-07-21,2.92, 3.86, -9.53, 218.09, 321.95, 492.13, repro,
2018-07-22,0.32, 1.44, 2.64, 252.60, 173.33, 588.34, repro,
2018-07-23,0.13, -1.10, -5.83, 253.06, 158.50, 509.10, repro,
2018-07-24,-1.26, 0.90, -12.02, 255.89, 175.91, 594.69, repro,
2018-07-25,-0.56, 0.06, -10.02, 204.80, 197.78, 379.56, repro,
2018-07-26,-1.24, -0.67, -15.44, 220.40, 197.34, 631.25, repro,
2018-07-27,0.27, 1.95, -14.44, 253.21, 173.12, 591.36, repro,
2018-07-28,-0.69, 1.92, -11.30, 256.30, 175.03, 597.92, repro,
2018-07-29,-0.34, 0.17, 1.00, 136.09, 196.87, 586.89, repro,
2018-07-30,1.61, -5.11, 12.43, 58.03, 92.45, 230.00, repro,
2018-07-31,2.02, -2.43, 13.31, 128.08, 92.13, 293.04, repro,
2018-08-01,-0.36, -3.95, 15.50, 125.97, 90.56, 286.29, repro,
2018-08-02,0.19, 0.59, 1.49, 133.35, 84.79, 302.82, repro,
2018-08-03,-2.83, -2.27, -10.44, 113.05, 112.36, 247.00, repro,
2018-08-04,2.19, -2.16, 7.31, 180.37, 173.34, 610.11, repro,
2018-08-05,-8.81, -12.14, -11.42, 54.25, 51.81, 118.44, repro,
2018-08-06,1.10, -1.88, -0.05, 93.55, 56.21, 183.01, repro,
2018-08-07,2.06, 0.38, -0.26, 96.95, 120.95, 243.27, repro,
2018-08-08,-0.44, -4.85, 6.36, 60.73, 81.22, 213.37, repro,
2018-08-09,-1.11, 2.79, 1.06, 67.08, 83.92, 204.41, repro,
2018-08-10,48.75, 5792.16, 0.76, 10000.00, 10000.00, 10000.00, repro,
2018-08-11,2.03, -1.15, 9.40, 91.37, 114.07, 231.20, repro,
2018-08-12,2.38, -1.64, 4.09, 92.08, 115.10, 231.79, repro,
2018-08-13,1.08, -0.23, 5.16, 85.62, 60.59, 222.07, repro,
2018-08-14,2.69, -0.83, 9.09, 152.00, 117.53, 436.45, repro,
2018-08-15,-1.32, -1.30, -0.58, 71.99, 103.35, 221.69, repro,
2018-08-16,0.31, -2.14, -2.09, 76.68, 109.37, 226.49, repro,
2018-08-17,1.45, 0.45, -6.99, 77.73, 53.39, 184.71, repro,
2018-08-18,1.25, -5.98, 2.01, 58.59, 63.30, 186.59, repro,
2018-08-19,3.16, -1.50, 14.01, 163.45, 93.57, 205.19, repro,
2018-08-20,1.88, -0.75, -7.17, 78.40, 70.69, 191.14, repro,
2018-08-21,-1.43, -2.58, -2.87, 105.84, 109.69, 363.05, repro,
2018-08-22,1.51, -3.93, -1.14, 62.70, 83.87, 221.25, repro,
2018-08-23,1.11, -1.46, 1.66, 65.43, 86.14, 227.64, repro,
2018-08-24,0.48, -1.41, 2.73, 121.87, 124.81, 432.11, repro,
2018-08-25,2.95, -1.03, -14.83, 60.93, 81.37, 215.87, repro,
2018-08-26,3.32, -2.70, -2.29, 88.52, 76.67, 154.55, repro,
2018-08-27,3.88, -2.59, 15.16, 85.72, 93.41, 327.87, repro,
2018-08-28,1.17, -3.97, 10.20, 59.15, 75.27, 226.35, repro,
2018-08-29,1.02, -2.27, 4.33, 59.33, 78.76, 210.10, repro,
2018-08-30,0.13, -0.61, 20.42, 60.27, 70.19, 176.80, repro,
2018-08-31,-1.18, 0.82, 5.69, 82.08, 56.49, 194.93, repro,
2018-09-01,2.27, -1.63, 3.11, 76.07, 82.22, 187.08, repro,
2018-09-02,-1.42, -0.97, 3.12, 80.48, 75.52, 271.17, repro,
2018-09-03,-2.73, 0.58, -2.95, 112.62, 127.07, 295.30, repro,
2018-09-04,-1.28, -0.23, -7.08, 173.28, 143.44, 561.57, repro,
2018-09-05,-2.01, 0.61, -1.13, 173.52, 143.28, 562.21, repro,
2018-09-06,0.71, 2.05, 6.75, 122.47, 89.73, 272.50, repro,
2018-09-07,-1.71, 0.98, -5.01, 156.76, 94.06, 427.60, repro,
2018-09-08,0.99, -0.21, 1.46, 51.85, 109.55, 268.17, repro,
2018-09-09,-0.75, -1.23, 9.41, 89.16, 80.22, 251.27, repro,
2018-09-10,-0.80, 0.65, 1.24, 69.63, 71.05, 188.59, repro,
2018-09-11,-3.37, -0.42, 9.66, 203.61, 147.87, 171.61, repro,
2018-09-12,-1.88, -2.25, 3.71, 158.24, 101.06, 238.76, repro,
2018-09-13,0.24, 0.02, -5.00, 81.53, 75.81, 190.46, repro,
2018-09-14,-2.00, -3.98, -14.37, 69.15, 95.34, 253.35, repro,
2018-09-15,-0.36, 0.10, -2.91, 87.85, 71.16, 160.10, repro,
2018-09-16,0.00, 0.00, 0.00, 1.68, 1.83, 8.10, repro,
2018-09-17,0.29, 0.49, -0.26, 1.63, 1.77, 7.70, repro,
2018-09-18,-0.94, 0.14, 2.27, 1.65, 1.82, 7.77, repro,
2018-09-19,-1.05, 0.33, -3.83, 1.82, 2.04, 8.45, repro,
2018-09-20,1.66, 0.45, -2.02, 1.62, 1.76, 7.59, repro,
2018-09-21,0.81, 0.26, 7.44, 2.03, 2.40, 9.75, repro,
2018-09-22,-3.23, 0.69, 4.50, 1.70, 1.81, 7.86, repro,
2018-09-23,1.36, -1.67, 3.78, 107.96, 72.76, 255.69, repro,
2018-09-24,0.08, -0.00, 8.54, 137.05, 79.14, 284.96, repro,
2018-09-25,2.71, 1.54, 4.02, 188.41, 139.81, 554.67, repro,
2018-09-26,-2.24, -1.13, 5.85, 136.12, 78.47, 282.64, repro,
2018-09-27,-1.08, 1.90, 7.43, 136.44, 78.41, 282.60, repro,
2018-09-28,0.97, -0.05, -9.94, 102.76, 81.61, 274.21, repro,
2018-09-29,2.88, -2.98, 12.23, 187.30, 141.10, 555.83, repro,
2018-09-30,-0.30, 1.02, -7.33, 117.34, 84.63, 259.09, repro,
2018-10-01,-1.82, -1.49, -4.39, 110.68, 81.06, 214.56, repro,
2018-10-02,0.85, -1.89, -1.89, 110.60, 81.43, 215.46, repro,
2018-10-03,0.24, -3.21, 3.63, 78.15, 70.04, 210.42, repro,
2018-10-04,0.91, -1.45, -2.38, 90.04, 95.70, 220.98, repro,
2018-10-05,-0.10, -0.73, 3.08, 89.49, 79.41, 250.08, repro,
2018-10-06,-0.23, 1.10, -0.78, 62.98, 94.46, 235.62, repro,
2018-10-07,-0.33, -0.09, -2.10, 1.65, 1.75, 7.63, repro,
2018-10-08,0.11, -1.26, 6.16, 1.60, 1.73, 7.45, repro,
2018-10-09,60.99, 8212.79, 5.25, 10000.00, 10000.00, 10000.00, repro,
2018-10-10,0.99, 5.12, -25.48, 4.47, 6.64, 28.66, repro,
2018-10-20,-26.76, 56.73, -166.58, 424.11, 363.12, 916.72, repro,
2018-10-21,66.72, 6618.68, -3.52, 10000.00, 10000.00, 10000.00, repro,
2018-10-22,58.08, 6497.33, 6.25, 10000.00, 10000.00, 10000.00, repro,
2018-10-23,2.20, 0.05, -9.15, 67.36, 103.85, 248.69, repro,
2018-10-24,-0.05, -4.73, -12.94, 88.73, 74.31, 176.72, repro,
2018-10-25,2.00, -7.63, 15.71, 63.16, 94.29, 235.23, repro,
2018-10-26,-0.62, -7.87, 2.65, 88.20, 82.64, 182.07, repro,
2018-10-27,3.21, -8.73, 14.72, 113.89, 85.02, 255.81, repro,
2018-10-29,3.05, -2.77, -15.56, 3.09, 3.32, 13.86, repro,
2018-10-30,0.94, -5.41, 6.07, 1.79, 2.06, 8.35, repro,
2018-10-31,0.00, -4.43, 4.96, 1.73, 1.83, 7.94, repro,
2018-11-03,-10.25, 3.91, -4.36, 3.26, 3.23, 14.20, repro,
2018-11-04,0.99, -5.15, 10.16, 1.68, 1.88, 7.93, repro,
2018-11-05,3.46, -4.30, 2.16, 1.68, 1.88, 8.07, repro,
2018-11-06,-0.55, -5.60, -5.86, 1.84, 2.10, 8.64, repro,
2018-11-07,1.14, -5.96, 3.49, 1.61, 1.77, 7.54, repro,
2018-11-08,-2.50, -4.95, 2.98, 1.67, 1.84, 7.86, repro,
2018-11-09,-2.44, -5.77, -0.10, 1.67, 1.83, 7.77, repro,
2018-11-10,-1.40, -5.63, 12.79, 1.64, 1.79, 7.73, repro,
2018-11-11,-1.53, -3.11, 3.44, 1.60, 1.77, 7.52, repro,
2018-11-12,0.76, -1.88, 1.49, 1.72, 1.97, 8.37, repro,
2018-11-13,1.26, -5.82, -7.27, 1.63, 1.80, 7.79, repro,
2018-11-14,1.89, -3.10, -6.79, 2.01, 2.34, 9.84, repro,
2018-11-15,-0.02, -4.84, 1.43, 1.65, 1.80, 7.69, repro,
2018-11-16,0.76, -5.87, -2.17, 1.64, 1.78, 7.77, repro,
2018-11-17,0.08, -3.62, 4.88, 1.63, 1.82, 7.68, repro,
2018-11-18,-0.41, -4.37, -1.12, 1.62, 1.80, 7.69, repro,
2018-11-19,0.87, -4.30, 2.21, 1.63, 1.81, 7.70, repro,
2018-11-20,0.17, -4.46, 4.94, 1.69, 1.90, 8.08, repro,
2018-11-21,0.06, -4.90, 5.38, 1.85, 2.17, 8.77, repro,
2018-11-23,2.03, -4.21, -4.27, 1.84, 2.09, 8.65, repro,
2018-11-24,1.04, -2.71, 5.74, 1.76, 1.96, 8.33, repro,
2018-11-25,1.50, -4.56, 4.18, 1.70, 1.88, 7.92, repro,
2018-11-26,63.62, -5504.98, -4.41, 10000.00, 10000.00, 10000.00, repro,
2018-11-27,0.17, -3.35, 7.00, 1.75, 1.95, 8.19, repro,
2018-11-28,1.11, -3.69, 1.90, 1.86, 2.08, 8.72, repro,
2018-11-29,-0.56, -6.53, 4.44, 1.80, 2.03, 8.83, repro,
2018-11-30,-0.66, -5.39, 2.84, 1.67, 1.82, 7.86, repro,
2018-12-01,0.13, -5.10, 6.26, 1.63, 1.80, 7.68, repro,
2018-12-02,2.90, -5.61, 5.47, 1.63, 1.79, 7.74, repro,
2018-12-03,-1.24, -2.54, -10.15, 1.69, 1.88, 7.98, repro,
2018-12-04,-2.14, 0.56, 10.97, 1.78, 1.98, 8.48, repro,
2018-12-05,-1.36, -3.15, 5.86, 1.62, 1.77, 7.64, repro,
2018-12-06,0.32, -5.37, 7.88, 1.64, 1.83, 7.83, repro,
2018-12-07,0.92, -1.37, -4.70, 2.21, 2.51, 10.84, repro,
2018-12-08,-3.42, 0.70, 15.78, 1.67, 1.83, 7.82, repro,
2018-12-09,-0.31, 0.11, -11.79, 1.63, 1.79, 7.67, repro,
2018-12-10,0.17, -0.52, -5.14, 1.62, 1.78, 7.53, repro,
2018-12-11,0.33, -1.59, 1.29, 1.87, 2.03, 8.71, repro,
2018-12-12,-0.26, -0.94, 11.06, 1.67, 1.83, 7.69, repro,
2018-12-13,0.07, -2.10, 8.40, 1.69, 1.83, 7.88, repro,
2018-12-14,0.50, -2.35, 10.58, 1.63, 1.85, 7.71, repro,
2018-12-15,-0.75, -1.84, -7.59, 1.64, 1.83, 7.68, repro,
2018-12-16,-0.68, -3.43, -7.37, 1.68, 1.87, 7.86, repro,
2018-12-17,-0.13, -1.63, 0.47, 1.68, 1.83, 7.77, repro,
2018-12-18,-2.09, -2.70, -0.53, 1.91, 1.99, 8.78, repro,
2018-12-19,0.36, -3.24, -3.74, 1.63, 1.83, 7.75, repro,
2018-12-20,1.31, -2.51, -1.43, 1.62, 1.80, 7.61, repro,
2018-12-21,1.02, -3.97, 3.38, 1.64, 1.81, 7.65, repro,
2018-12-22,-0.12, -3.35, 15.12, 1.60, 1.78, 7.56, repro,
2018-12-23,-0.28, -2.14, 12.84, 1.61, 1.78, 7.58, repro,
2018-12-24,-0.88, -2.75, 7.28, 1.67, 1.82, 7.90, repro,
2018-12-25,-1.03, -3.46, -3.08, 1.64, 1.82, 7.87, repro,
2018-12-26,1.31, -2.30, 6.22, 1.76, 2.03, 8.40, repro,
2018-12-27,3.73, -4.16, 10.03, 1.72, 1.90, 8.02, repro,
2018-12-28,3.95, 0.68, 1.41, 1.76, 2.03, 8.54, repro,
2018-12-29,-6.60, -5.10, -9.47, 1.83, 2.09, 8.78, repro,
2018-12-30,3.44, 1.40, 7.36, 1.77, 1.99, 8.76, repro,
2018-12-31,2.05, -2.68, -10.11, 1.74, 1.96, 8.47, repro,
2019-01-01,-0.53, 10.08, -10.91, 1.69, 1.88, 8.00, repro,
2019-01-02,0.65, -1.75, -23.59, 2.37, 2.66, 11.70, repro,
2019-01-04,-2.98, -4.79, 2.04, 4.43, 5.77, 21.16, repro,
2019-01-05,1.30, -3.28, -0.66, 1.60, 1.77, 7.52, repro,
2019-01-06,0.19, -2.71, -4.40, 1.60, 1.78, 7.53, repro,
2019-01-07,2.17, -1.74, -2.89, 1.89, 1.95, 8.39, repro,
2019-01-08,-2.36, -1.59, 6.34, 1.74, 1.91, 8.17, repro,
2019-01-09,-1.82, 1.82, 0.01, 1.81, 1.97, 8.39, repro,
2019-01-10,-0.22, 0.50, -2.50, 1.64, 1.79, 7.63, repro,
2019-01-11,0.04, -1.66, -5.15, 1.66, 1.88, 7.74, repro,
2019-01-12,0.87, -1.85, -10.83, 1.65, 1.84, 7.70, repro,
2019-01-13,-0.18, -1.77, -9.01, 1.62, 1.78, 7.60, repro,
2019-01-14,-0.20, -0.22, -9.11, 1.72, 1.86, 8.01, repro,
2019-01-15,0.33, 0.92, -0.98, 1.61, 1.78, 7.55, repro,
2019-01-16,-0.25, 0.04, 0.53, 1.82, 1.93, 8.29, repro,
2019-01-17,-1.79, 0.92, -10.47, 1.61, 1.79, 7.53, repro,
2019-01-18,0.34, -0.91, -2.66, 1.69, 1.82, 7.95, repro,
2019-01-19,-1.11, -2.09, -6.85, 1.65, 1.79, 7.74, repro,
2019-01-20,0.78, -2.69, -10.53, 1.68, 1.85, 7.88, repro,
2019-01-21,-0.80, -0.55, -6.01, 1.62, 1.84, 7.64, repro,
2019-01-22,-0.75, 3.50, -12.19, 1.68, 1.94, 7.84, repro,
2019-01-23,-1.09, -2.63, -3.42, 1.62, 1.82, 7.59, repro,
2019-01-24,0.18, -2.68, 4.97, 1.72, 1.95, 8.23, repro,
2019-01-25,1.92, -0.26, -4.04, 1.64, 1.84, 7.77, repro,
2019-01-26,0.62, -1.48, -1.01, 1.68, 1.83, 8.04, repro,
2019-01-27,-1.15, 0.93, 1.29, 1.65, 1.77, 7.85, sup6f,
2019-01-28,-0.37, -2.61, -5.43, 1.64, 1.79, 7.79, sup6f,
2019-01-29,1.20, -2.57, -0.30, 1.59, 1.75, 7.49, sup6f,
2019-01-30,-0.00, -0.64, -8.37, 1.79, 1.95, 8.48, sup6f,
2019-01-31,-2.20, 0.11, 16.12, 3.54, 3.42, 14.51, sup6f,
2019-02-01,-1.95, -2.22, -4.84, 1.68, 1.84, 8.08, sup6f,
2019-02-02,-1.22, -1.56, -5.57, 1.67, 1.83, 7.97, sup6f,
2019-02-03,0.25, -4.95, -5.43, 1.59, 1.75, 7.47, sup6f,
2019-02-04,0.50, -3.76, 5.11, 1.66, 1.81, 7.76, sup6f,
2019-02-05,-1.41, -4.92, 5.40, 1.69, 1.82, 7.91, sup6f,
2019-02-06,0.52, -3.56, -3.04, 1.89, 1.98, 8.78, sup6f,
2019-02-07,-0.75, -5.99, 2.92, 1.59, 1.75, 7.50, sup6f,
2019-02-08,-1.96, -1.89, -0.04, 1.59, 1.78, 7.54, sup6f,
2019-02-09,-1.17, -2.35, -7.03, 1.62, 1.80, 7.73, sup6f,
2019-02-10,-1.71, -3.25, -22.95, 1.68, 1.81, 7.92, suppf,
2019-02-11,1.35, -3.90, 7.35, 1.66, 1.86, 7.95, suppf,
2019-02-12,3.22, -1.06, 6.32, 2.06, 2.19, 10.38, suppf,
2019-02-16,-1.89, -4.99, 14.52, 4.29, 6.18, 25.71, suppf,
2019-02-20,3.16, -4.12, -12.76, 6.09, 6.54, 24.00, repro,
2019-02-21,-1.83, 0.34, 9.33, 1.78, 1.91, 8.32, repro,
2019-02-22,-0.35, -4.17, 6.57, 1.61, 1.78, 7.57, repro,
2019-02-23,-0.54, -4.31, -2.06, 1.64, 1.82, 7.75, repro,
2019-02-24,-1.56, -3.45, -0.57, 1.58, 1.76, 7.49, suppf,
2019-02-25,-1.92, -4.87, 2.73, 1.70, 1.86, 8.03, suppf,
2019-02-26,2.75, -6.90, 15.93, 1.66, 1.84, 7.86, suppf,
2019-02-27,-0.33, -6.45, -9.17, 1.63, 1.79, 7.68, suppf,
2019-02-28,-1.78, -2.58, 7.82, 1.63, 1.82, 7.74, suppf,
2019-03-01,0.68, -5.06, -1.61, 1.94, 2.08, 8.78, suppf,
2019-03-02,-0.70, -4.48, -8.17, 1.58, 1.76, 7.54, suppf,
2019-03-03,0.64, -3.74, 1.69, 1.59, 1.76, 7.56, suppf,
2019-03-04,-0.16, -1.16, -6.43, 1.62, 1.78, 7.75, suppf,
2019-03-05,-1.19, -2.85, -8.20, 1.74, 1.87, 8.45, suppf,
2019-03-06,-1.04, -4.44, 4.39, 1.58, 1.78, 7.61, suppf,
2019-03-07,0.45, -4.32, 8.37, 1.85, 1.99, 8.71, suppf,
2019-03-08,-0.57, -2.35, -10.50, 1.60, 1.77, 7.52, suppf,
2019-03-09,-0.08, -2.68, -6.01, 1.60, 1.77, 7.57, suppf,
2019-03-10,-1.71, -3.83, 7.34, 1.73, 1.90, 8.18, suppf,
2019-03-11,-1.22, -5.45, -5.22, 1.66, 1.86, 8.10, suppf,
2019-03-12,2.29, -4.07, 2.26, 1.98, 2.17, 9.83, suppf,
2019-03-13,-1.25, -1.31, 8.32, 1.60, 1.78, 7.68, suppf,
2019-03-14,-0.34, -3.36, 4.22, 1.65, 1.77, 7.67, suppf,
2019-03-15,-1.06, -4.76, -5.24, 1.67, 1.83, 7.91, suppf,
2019-03-16,0.83, -4.23, -6.95, 1.60, 1.77, 7.58, suppf,
2019-03-17,-2.56, -3.43, -1.32, 1.59, 1.76, 7.52, suppf,
2019-03-18,-1.73, -1.95, -7.37, 1.61, 1.78, 7.61, suppf,
2019-03-19,-1.26, -2.65, -0.37, 1.59, 1.76, 7.49, suppf,
2019-03-20,-0.05, -1.69, -6.19, 1.93, 2.04, 8.88, suppf,
2019-03-21,0.08, -3.00, -7.06, 1.60, 1.77, 7.58, suppf,
2019-03-22,-0.20, -0.26, -5.63, 1.63, 1.86, 7.84, suppf,
2019-03-23,-0.09, -0.53, -7.74, 1.66, 1.86, 7.89, suppf,
2019-03-24,-1.22, 0.69, 4.92, 1.61, 1.77, 7.60, suppf,
2019-03-25,0.81, -2.01, -0.06, 1.66, 1.85, 7.87, suppf,
2019-03-26,-1.31, 0.70, -11.59, 1.93, 2.09, 9.35, suppf,
2019-03-27,-0.73, -1.62, -4.31, 1.61, 1.78, 7.63, suppf,
2019-03-28,2.71, 0.10, -0.24, 1.61, 1.78, 7.60, suppf,
2019-03-29,0.55, -1.55, 12.80, 1.65, 1.91, 7.96, suppf,
2019-03-30,-2.49, -2.76, -0.13, 1.63, 1.80, 7.60, suppf,
2019-03-31,1.40, -4.55, -1.44, 1.69, 1.88, 7.87, suppf,
2019-04-01,-2.02, -4.60, 12.05, 1.65, 1.82, 7.75, suppf,
2019-04-02,-1.76, -2.65, 3.43, 1.61, 1.80, 7.65, suppf,
2019-04-03,-2.85, -2.53, 2.74, 2.12, 2.15, 9.68, suppf,
2019-04-04,0.96, -4.79, -2.68, 1.62, 1.77, 7.55, suppf,
2019-04-05,1.08, -2.74, 1.24, 1.63, 1.80, 7.64, suppf,
2019-04-06,-0.82, -3.63, 2.25, 1.61, 1.78, 7.60, suppf,
2019-04-07,-0.00, -3.74, -2.50, 1.65, 1.87, 7.83, repro,
2019-04-08,-0.06, -1.42, 2.10, 1.62, 1.81, 7.61, repro,
2019-04-09,0.59, -1.89, -0.92, 1.65, 1.83, 7.71, repro,
2019-04-10,-1.23, -0.97, 0.59, 1.96, 2.02, 8.93, repro,
2019-04-11,-0.33, -3.09, 11.88, 1.69, 1.86, 7.97, repro,
2019-04-12,-0.19, -1.59, 0.09, 1.63, 1.83, 7.70, repro,
2019-04-13,-0.42, -1.00, 3.48, 1.74, 1.89, 8.06, repro,
2019-04-14,-0.28, -1.83, 2.24, 1.61, 1.79, 7.60, repro,
2019-04-15,-1.94, -1.20, -5.15, 1.66, 1.79, 7.68, repro,
2019-04-16,-0.40, -1.28, -10.62, 1.60, 1.78, 7.55, repro,
2019-04-17,-1.80, -1.26, -3.35, 1.62, 1.79, 7.58, repro,
2019-04-18,-0.03, -2.48, -10.91, 1.61, 1.79, 7.60, repro,
2019-04-19,1.29, -3.24, 5.19, 1.66, 1.87, 7.92, repro,
2019-04-20,1.33, -0.53, -0.18, 1.64, 1.81, 7.67, repro,
2019-04-21,-2.53, -1.78, 14.23, 1.66, 1.82, 7.73, repro,
2019-04-22,-1.82, -2.59, -6.46, 1.61, 1.79, 7.58, repro,
2019-04-23,-1.51, 1.02, -8.40, 1.63, 1.83, 7.68, repro,
2019-04-24,-1.98, -0.88, 3.46, 1.66, 1.87, 7.84, repro,
2019-04-25,-1.52, -1.79, 1.53, 1.65, 1.82, 7.69, repro,
2019-04-26,-1.42, -0.78, -10.62, 1.62, 1.79, 7.58, repro,
2019-04-27,0.95, -0.81, 9.99, 1.94, 2.09, 9.28, repro,
2019-04-28,0.39, -1.58, -2.40, 1.68, 1.85, 7.98, repro,
2019-04-29,-0.57, -1.07, 3.13, 1.84, 1.98, 8.87, repro,
2019-04-30,-2.20, -0.64, 5.47, 1.69, 1.92, 7.87, repro,
2019-05-01,-1.66, -1.31, -11.46, 1.66, 1.84, 7.84, repro,
2019-05-02,-0.23, -4.11, -0.42, 1.74, 1.85, 8.03, repro,
2019-05-03,-3.06, -2.37, 7.00, 2.04, 2.23, 9.99, repro,
2019-05-04,-1.14, -3.12, 12.31, 1.60, 1.81, 7.52, repro,
2019-05-05,-0.97, -2.05, -6.65, 1.59, 1.76, 7.48, suppf,
2019-05-06,-2.38, -0.65, -4.35, 1.59, 1.76, 7.45, suppf,
2019-05-07,-0.81, -2.95, 5.79, 1.66, 1.86, 7.96, suppf,
2019-05-08,-4.19, -2.33, 11.50, 1.66, 1.84, 7.81, suppf,
2019-05-09,-3.20, -2.82, 17.89, 1.62, 1.87, 7.80, suppf,
2019-05-10,-2.15, -2.25, 7.09, 1.83, 2.08, 8.80, suppf,
2019-05-11,-0.83, -2.49, 3.60, 1.58, 1.77, 7.46, suppf,
2019-05-12,-0.72, -2.01, -0.16, 1.60, 1.77, 7.54, suppf,
2019-05-13,-0.72, -0.79, -1.87, 1.76, 1.91, 8.27, suppf,
2019-05-14,-2.77, -0.21, 5.88, 1.65, 1.80, 7.68, suppf,
2019-05-15,-0.49, -0.76, -5.84, 1.60, 1.78, 7.56, suppf,
2019-05-16,-1.34, -2.84, -3.39, 1.63, 1.83, 7.85, suppf,
2019-05-17,-2.51, -2.65, -4.55, 1.98, 2.22, 9.49, suppf,
2019-05-18,-4.03, -3.07, 2.93, 1.66, 1.87, 7.91, suppf,
2019-05-19,-3.46, -1.98, 2.40, 1.74, 1.92, 8.34, suppf,
2019-05-20,-4.08, -0.34, 2.91, 2.05, 2.32, 9.97, suppf,
2019-05-21,-0.71, -2.28, 3.90, 1.67, 1.83, 8.03, suppf,
2019-05-22,-1.60, -1.23, 3.84, 1.64, 1.90, 7.77, suppf,
2019-05-23,-2.32, 0.40, -1.04, 1.69, 1.96, 8.04, suppf,
2019-05-24,-2.57, -0.71, -2.59, 1.95, 2.31, 9.44, suppf,
2019-05-25,-1.27, -1.84, -4.84, 1.61, 1.84, 7.69, suppf,
2019-05-26,-1.95, -1.59, 2.17, 1.61, 1.80, 7.63, suppf,
2019-05-27,-3.19, -0.80, 3.64, 1.73, 1.99, 7.88, repro,
2019-05-28,-3.27, -4.01, 5.61, 1.60, 1.85, 7.68, suppf,
2019-05-29,-3.01, -3.26, 3.19, 1.80, 2.11, 8.62, suppf,
2019-05-30,-3.15, -3.17, -8.48, 1.60, 1.82, 7.62, suppf,
2019-05-31,-2.79, -4.39, -1.51, 1.61, 1.81, 7.68, suppf,
2019-06-01,-2.97, -0.71, -5.95, 1.63, 1.89, 7.83, suppf,
2019-06-02,-4.88, -4.52, -4.02, 1.62, 1.89, 7.78, final,
2019-06-03,-2.18, -5.82, -5.42, 1.64, 1.86, 7.79, final,
2019-06-04,-3.16, -6.34, -9.44, 1.69, 1.99, 8.27, final,
2019-06-05,-3.23, -4.21, 3.02, 1.89, 2.21, 8.78, final,
2019-06-06,-3.09, -4.69, 0.90, 1.84, 2.18, 8.95, final,
2019-06-07,-1.68, -4.75, 1.85, 1.70, 1.98, 8.33, final,
2019-06-08,-2.73, -2.76, -4.06, 1.67, 1.92, 8.04, final,
2019-06-09,-3.20, -3.76, -6.40, 1.62, 1.88, 7.81, final,
2019-06-10,-1.42, -2.99, -4.24, 1.86, 2.15, 9.15, final,
2019-06-11,-1.87, -3.18, -3.19, 1.78, 1.98, 8.74, final,
2019-06-12,-4.36, -1.18, -0.71, 1.82, 2.02, 8.91, final,
2019-06-13,-2.08, -4.80, 1.74, 1.62, 1.84, 7.71, final,
2019-06-14,-5.71, 0.08, -9.84, 1.62, 1.87, 7.76, final,
2019-06-15,-0.93, -2.22, -6.91, 1.64, 1.86, 7.74, final,
2019-06-16,0.87, -4.71, -13.65, 1.69, 1.98, 7.98, suppf,
2019-06-17,-2.10, -2.85, -12.25, 1.64, 1.89, 7.85, suppf,
2019-06-18,0.48, -4.69, 3.86, 1.77, 2.00, 8.70, suppf,
2019-06-19,-1.66, -4.36, -1.21, 1.94, 2.18, 9.53, suppf,
2019-06-20,0.42, -2.05, 7.88, 1.87, 2.17, 9.05, suppf,
2019-06-21,-2.62, -3.31, -5.15, 1.95, 2.26, 9.28, suppf,
2019-06-22,-0.04, -3.53, -6.18, 1.68, 1.96, 7.83, suppf,
2019-06-23,0.49, -2.38, 7.84, 1.63, 1.85, 7.73, suppf,
2019-06-24,-2.28, -3.46, 0.95, 1.63, 1.85, 7.78, suppf,
2019-06-25,-0.97, -1.77, 2.23, 2.02, 2.51, 9.92, suppf,
2019-06-26,-0.00, -2.12, -7.00, 2.11, 2.55, 10.31, suppf,
2019-06-27,-2.20, -0.69, -4.88, 1.74, 2.00, 8.29, suppf,
2019-06-28,0.18, -4.13, -7.15, 1.78, 2.07, 8.69, suppf,
2019-06-29,-3.60, -5.16, -4.38, 1.70, 1.92, 8.14, suppf,
2019-06-30,1.01, -1.59, -4.10, 1.63, 1.86, 7.75, suppf,
2019-07-01,-2.18, -0.62, -7.19, 1.64, 1.84, 7.87, suppf,
2019-07-02,-1.08, 0.21, 1.24, 1.62, 1.86, 7.82, suppf,
2019-07-03,-5.61, 1.40, 11.71, 2.05, 2.20, 9.71, suppf,
2019-07-04,-0.44, -6.26, -10.15, 1.68, 1.86, 8.15, suppf,
2019-07-05,-0.22, -4.18, -4.08, 1.63, 1.77, 7.71, suppf,
2019-07-06,-2.92, -3.43, 0.21, 1.68, 1.88, 8.08, suppf,
2019-07-07,-0.12, -0.96, 10.07, 1.65, 1.79, 7.66, repro,
2019-07-08,1.89, -2.67, -0.71, 1.66, 1.87, 7.94, repro,
2019-07-09,1.05, -2.94, 0.14, 1.63, 1.79, 7.59, repro,
2019-07-10,-0.42, -0.81, -8.95, 1.93, 2.27, 9.04, repro,
2019-07-11,-0.89, 0.55, 0.37, 1.70, 1.91, 8.09, repro,
2019-07-12,1.49, -1.46, 6.93, 1.73, 2.02, 8.30, repro,
2019-07-13,-2.05, -1.99, 6.72, 2.00, 2.43, 9.88, repro,
2019-07-14,-0.66, -0.30, -6.34, 1.65, 1.87, 7.82, final,
2019-07-15,-1.24, -4.50, 5.97, 1.64, 1.90, 7.87, final,
2019-07-16,-2.11, -5.87, 6.14, 1.69, 2.00, 8.19, final,
2019-07-17,0.65, -5.98, 0.56, 1.91, 2.21, 8.99, final,
2019-07-18,1.91, 2.32, 11.44, 1.65, 1.89, 8.00, final,
2019-07-19,-1.33, -0.98, 2.02, 1.70, 1.94, 7.92, final,
2019-07-20,-3.66, -1.28, -2.63, 1.75, 2.02, 8.23, final,
2019-07-21,0.49, -5.05, -11.06, 1.67, 1.99, 8.16, final,
2019-07-22,-0.19, -4.81, -2.49, 1.69, 1.86, 8.04, final,
2019-07-23,-0.85, -2.63, 0.33, 1.62, 1.77, 7.77, final,
2019-07-24,-1.51, 1.42, 2.53, 1.89, 2.02, 9.40, final,
2019-07-25,-0.55, -0.74, -5.32, 1.63, 1.81, 7.77, final,
2019-07-26,-1.14, -0.83, -2.59, 1.75, 1.87, 8.39, final,
2019-07-27,-0.91, 0.59, 9.02, 1.62, 1.78, 7.71, final,
2019-07-28,-4.66, -2.18, 4.02, 1.70, 1.92, 8.03, final,
2019-07-29,-1.00, -1.13, 7.03, 1.65, 1.84, 7.80, final,
2019-07-30,0.28, -1.09, -4.91, 1.71, 1.97, 8.11, final,
2019-07-31,-1.58, -0.34, 6.07, 2.04, 2.33, 9.62, final,
2019-08-01,-3.58, -1.60, 11.88, 1.65, 1.82, 7.83, final,
2019-08-02,-1.63, -5.56, 18.66, 1.67, 1.82, 7.97, final,
2019-08-03,-1.67, -3.80, -11.74, 1.67, 1.84, 7.84, final,
2019-08-04,-1.24, -4.52, -1.26, 1.62, 1.78, 7.68, final,
2019-08-05,-0.61, -2.02, 22.52, 1.78, 2.02, 8.40, final,
2019-08-06,-0.96, -2.65, 13.12, 1.71, 1.93, 8.24, final,
2019-08-24,-2.74, -2.49, 10.62, 3.90, 4.08, 17.77, final,
2019-08-25,-2.24, -0.94, 17.77, 1.64, 1.83, 7.87, final,
2019-08-26,-0.45, -0.74, -2.07, 1.62, 1.77, 7.61, final,
2019-08-27,-0.75, -2.19, 1.74, 1.66, 1.85, 7.91, final,
2019-08-28,0.58, -1.10, -1.07, 1.61, 1.85, 7.74, final,
2019-08-29,-0.55, -0.82, -7.75, 1.87, 2.21, 8.82, final,
2019-08-30,-2.21, -0.95, 3.79, 1.64, 1.89, 7.81, final,
2019-08-31,-2.49, 0.77, -3.57, 1.76, 1.86, 8.39, final,
2019-09-01,-2.93, -1.85, -6.36, 1.75, 1.91, 8.10, final,
2019-09-02,-2.70, -0.42, -2.32, 1.76, 1.95, 8.40, final,
2019-09-03,-2.40, -0.02, 1.33, 1.76, 2.04, 8.61, final,
2019-09-04,-1.60, 0.07, 8.80, 1.73, 1.85, 8.21, final,
2019-09-05,-2.29, -1.68, -2.97, 1.71, 1.96, 8.49, final,
2019-09-06,0.05, -0.92, -3.67, 1.70, 1.91, 8.35, final,
2019-09-07,3.04, -7.97, -2.89, 1.66, 1.89, 8.03, final,
2019-09-08,-0.72, -1.68, -3.66, 1.64, 1.90, 7.89, final,
2019-09-09,-1.97, -1.53, -3.79, 1.65, 1.80, 7.80, final,
2019-09-10,0.20, -1.32, -5.91, 1.65, 1.81, 7.76, final,
2019-09-11,-2.34, -0.03, 11.62, 1.79, 2.00, 8.28, final,
2019-09-12,0.07, -2.56, 2.73, 1.76, 1.91, 8.48, final,
2019-09-13,-1.89, -5.95, 0.70, 2.05, 2.31, 9.91, final,
2019-09-14,-1.96, -4.15, -13.18, 1.65, 1.86, 7.99, final,
2019-09-15,-3.15, -3.75, -12.14, 1.68, 1.84, 7.88, final,
2019-09-16,-1.90, -2.64, 2.63, 1.77, 2.00, 8.29, final,
2019-09-17,-0.34, -3.49, -6.10, 1.66, 1.80, 7.89, final,
2019-09-18,-0.68, -2.99, 0.26, 1.68, 1.86, 7.88, final,
2019-09-19,-2.07, -0.16, -1.17, 1.59, 1.74, 7.51, final,
2019-09-20,-0.11, -1.40, -22.30, 1.91, 2.07, 9.22, final,
2019-09-21,-2.02, -0.84, -4.03, 1.68, 1.93, 8.12, final,
2019-09-23,-1.45, 0.20, -0.21, 2.70, 2.94, 13.52, rapid,
2019-09-24,-0.08, -4.80, -9.50, 2.74, 3.02, 13.88, rapid,
2019-09-25,0.24, -1.68, -11.87, 2.79, 3.12, 14.26, rapid,
2019-09-27,-0.68, -1.80, 2.50, 5.98, 6.27, 27.12, rapid,
2019-09-28,-1.46, -5.83, -18.96, 2.77, 2.97, 13.92, rapid,
2019-09-30,-0.21, -3.06, -9.54, 2.77, 3.03, 13.75, rapid,
2019-10-01,-1.36, -2.12, -4.17, 2.75, 2.98, 13.78, rapid,
2019-10-02,-2.00, -1.33, -6.66, 2.70, 2.96, 13.59, rapid,
2019-10-03,-1.26, -2.61, -3.92, 2.75, 2.96, 13.46, rapid,
2019-10-04,-1.49, -1.65, -10.68, 2.74, 2.95, 13.58, rapid,
2019-10-05,-0.67, -3.90, -1.55, 2.71, 3.02, 13.90, rapid,
2019-10-06,-4.48, -5.21, 4.36, 2.81, 3.03, 14.00, rapid,
2019-10-07,-0.79, -2.49, -8.69, 2.75, 3.00, 13.79, rapid,
